Location: Liberec
(50.7830°N, 15.0500°E)
Time: 14:04:11
(UTC+02:00)

ACS3 Solar Sail - Visible Passes

Search period start: 08 May 2026 00:00
Search period end: 18 May 2026 00:00
Orbit: 890 x 951 km, 97.2° (Epoch: 7 May)

Date Brightness Start Highest point End Pass type
(mag) Time Alt. Az. Time Alt. Az. Time Alt. Az.
8 May 3.5 00:28:56 10° NE 00:32:58 18° E 00:35:19 15° ESE visible
8 May 1.7 02:10:03 10° NNE 02:16:04 89° WNW 02:18:49 35° SSW visible
8 May 3.4 03:53:29 10° N 03:57:40 20° NW 04:01:52 10° W visible
9 May 3.4 00:37:14 10° NE 00:41:42 21° E 00:44:07 17° ESE visible
9 May 1.7 02:18:41 10° N 02:24:41 78° WNW 02:27:36 33° SSW visible
9 May 3.5 04:02:19 10° NNW 04:06:08 18° NW 04:09:56 10° W visible
10 May 3.2 00:45:37 10° NE 00:50:28 25° E 00:52:55 19° ESE visible
10 May 1.8 02:27:21 10° N 02:33:18 67° WNW 02:36:24 30° SW visible
10 May 3.7 04:11:15 10° NNW 04:14:36 16° NW 04:17:58 10° W visible
11 May 3.0 00:54:04 10° NNE 00:59:14 29° E 01:01:44 22° SE visible
11 May 2.0 02:36:02 10° N 02:41:55 58° WNW 02:45:13 27° SW visible
11 May 3.8 04:20:17 10° NNW 04:23:05 14° NW 04:25:53 10° WNW visible
12 May 2.8 01:02:35 10° NNE 01:08:00 34° E 01:10:33 24° SE visible
12 May 2.2 02:44:46 10° N 02:50:32 50° WNW 02:54:03 23° SW visible
12 May 3.8 04:29:29 10° NNW 04:31:34 12° NW 04:33:38 10° WNW visible
13 May 2.6 01:11:09 10° NNE 01:16:45 39° E 01:19:24 26° SE visible
13 May 2.4 02:53:31 10° N 02:59:09 44° WNW 03:02:54 20° SW visible
14 May 2.4 01:19:45 10° NNE 01:25:31 45° E 01:28:16 28° SSE visible
14 May 2.6 03:02:18 10° N 03:07:46 38° WNW 03:11:45 18° WSW visible
15 May 2.2 01:28:24 10° NNE 01:34:18 53° E 01:37:08 30° SSE visible
15 May 2.8 03:11:07 10° N 03:16:24 33° WNW 03:20:38 15° WSW visible
15 May 3.9 23:57:40 10° ENE 23:59:29 11° ENE 00:01:18 10° E visible
16 May 2.0 01:37:05 10° NNE 01:43:04 62° E 01:46:02 30° S visible
16 May 3.0 03:19:58 10° N 03:25:02 29° WNW 03:29:31 12° WSW visible
17 May 3.8 00:05:30 10° NE 00:08:25 14° E 00:11:20 10° ESE visible
17 May 1.8 01:45:48 10° NNE 01:51:51 72° E 01:54:56 30° S visible
17 May 3.2 03:28:52 10° N 03:33:40 26° WNW 03:38:26 10° WSW visible
